[[{"header":{"parameterUnit":"m.s-1","parameterCategory":1,"la1":30.2991,"la2":30.254,"lo1":-89.0895,"lo2":-89.0444,"dy":0.0017,"dx":0.0017,"nx":28,"ny":28,"refTime":"2025-01-19T03:00:00:Z","depth":0,"parameterNumber":2,"parameterNumberName":"U-component_of_WINDS"},"data":[0,0,0,0,0,0,0,0,0,0,0,0,0,0,0,0,0,0,0,0,0,0,0,0,0,0,0,0,0,0,0,0,0,0,0,0,0,0,0,0,0,0,0,0,0,0,0,0,0,0,0,0,0,0,0,0,0,0,3.8289,3.8289,0,3.8322,3.8322,3.8323,3.8298,3.8297,3.8296,3.8295,3.8327,3.8329,3.8331,0,0,0,0,0,0,0,0,0,0,0,0,0,3.8206,3.8207,3.8289,3.829,3.829,3.8322,3.8322,3.8323,3.8298,3.8297,3.8295,3.8294,3.8327,3.8329,3.8331,0,0,0,0,0,0,0,0,0,0,0,0,0,3.824,3.8208,3.8289,3.8281,3.8281,3.8322,3.8322,3.8323,3.8298,3.8297,3.8295,3.8294,3.8326,3.8329,3.8332,3.8381,0,0,3.834,3.8341,0,0,0,0,0,0,0,0,3.8239,3.8244,3.8282,3.8282,3.8282,3.8304,3.8305,3.8343,3.8299,3.8292,3.8295,3.8293,3.8321,3.8324,3.8334,3.8383,3.8384,3.834,3.8342,3.8343,3.8344,0,0,0,0,0,0,0,3.8236,3.8242,3.8302,3.8283,3.8282,3.8277,3.828,3.8312,3.8315,3.8292,3.8291,3.8295,3.832,3.8331,3.8334,3.8385,3.834,3.8343,3.8345,3.8346,3.8479,3.8481,0,0,0,0,0,0,3.8234,3.824,3.8301,3.8303,3.8256,3.828,3.8283,3.8299,3.8315,3.8315,3.8296,3.8294,3.8327,3.8331,3.8335,3.8396,3.8343,3.8346,3.8348,3.8477,3.8479,3.8481,0,0,0,0,0,0,3.8233,3.824,3.83,3.8271,3.8278,3.8283,3.83,3.83,3.8311,3.8318,3.8318,3.8306,3.8326,3.8331,3.8371,3.8397,3.8347,3.835,3.8475,3.8478,3.848,3.8517,0,0,0,0,0,0,3.823,3.824,3.8258,3.8272,3.828,3.8334,3.8302,3.8302,3.8316,3.8313,3.8327,3.8328,3.8325,3.8367,3.8374,3.84,3.8352,3.8473,3.8476,3.848,3.8513,3.8521,3.8527,0,0,0,0,0,3.8228,3.8266,3.8259,3.8267,3.8303,3.8336,3.834,3.8336,3.8318,3.8337,3.8342,3.8328,3.8393,3.8371,3.8378,3.8406,3.8471,3.8475,3.8479,3.851,3.8519,3.8527,0,0,0,0,0,0,3.8254,3.8268,3.826,3.8304,3.8319,3.8331,3.8355,3.8346,3.8366,3.8362,3.8356,3.8359,3.8401,3.8407,3.8382,3.8456,3.8429,3.8435,3.845,3.8459,3.8465,3.8463,3.8354,0,0,0,0,0,3.8266,3.8291,3.8301,3.834,3.8348,3.835,3.8364,3.836,3.8375,3.8381,3.8389,3.8404,3.8428,3.8444,3.8466,3.8515,3.8518,3.8538,3.8544,3.855,3.8555,3.8583,3.8592,3.8495,3.8495,3.8495,0,0,3.8289,3.8299,3.8315,3.8345,3.8356,3.8383,3.8356,3.8384,3.8405,3.8385,3.8423,3.843,3.8446,3.8491,3.8511,3.8498,3.8583,3.8555,3.856,3.8561,3.8588,3.8597,3.8606,3.8498,3.8497,3.8497,0,0,3.8345,3.8355,3.8389,3.8401,3.8419,3.8421,3.8429,3.8443,3.8447,3.8486,3.8473,3.8497,3.8538,3.8551,3.8563,3.8627,3.8615,3.8635,3.8669,3.8697,3.8705,3.8711,3.8735,3.8744,3.864,3.864,3.864,0,3.8371,3.8411,3.8407,3.8438,3.8452,3.8438,3.8473,3.8484,3.8508,3.8519,3.8504,3.8557,3.8567,3.8615,3.8632,3.8641,3.8651,3.8632,3.8704,3.8711,3.8717,3.874,3.8748,3.8642,3.8642,3.8642,3.8641,0,3.8443,3.8471,3.8496,3.8521,3.8538,3.8571,3.8573,3.8591,3.8586,3.859,3.8631,3.8643,3.8668,3.868,3.8675,3.8728,3.872,3.8705,3.8677,3.8728,3.875,3.8758,3.8645,3.8645,3.8644,3.8643,0,0,3.8514,3.8539,3.8548,3.856,3.858,3.8602,3.8635,3.8661,3.8677,3.8695,3.8723,3.876,3.8747,3.876,3.8757,3.8781,3.8833,3.8763,3.8764,3.8776,3.8895,3.8906,3.8916,3.8826,3.8828,3.8829,3.8894,0,3.8572,3.8629,3.8628,3.8682,3.8708,3.8697,3.8726,3.8741,3.8747,3.8771,3.8776,3.8803,3.8783,3.8792,3.8815,3.8822,3.8857,3.8817,3.8853,3.8854,3.8849,3.8927,3.8939,3.8999,3.8902,3.8903,3.8904,0,3.8645,3.8667,3.8724,3.8742,3.8753,3.8779,3.8804,3.8827,3.8846,3.8848,3.8865,3.8859,3.8893,3.8866,3.8914,3.8887,3.8902,3.8908,3.891,3.8913,3.8882,3.8932,3.9018,3.9027,3.8917,3.8916,3.8915,0,3.8693,3.8737,3.8776,3.8787,3.8809,3.8828,3.8838,3.8855,3.8872,3.8894,3.8905,3.893,3.8944,3.8965,3.8966,3.8946,3.9015,3.8987,3.9019,3.9019,3.9033,3.9032,3.9122,3.9043,3.9043,3.9042,3.9042,0,3.8757,3.8792,3.8798,3.8823,3.8863,3.8862,3.8902,3.891,3.8926,3.8952,3.8944,3.8969,3.8969,3.8995,3.8997,3.9037,3.9044,3.9047,3.9047,3.9048,3.9047,3.9057,3.9053,3.9045,3.9044,3.9044,3.9043,0,3.8816,3.8822,3.8865,3.8883,3.8889,3.8917,3.8933,3.8957,3.8963,3.8996,3.9004,3.9013,3.9044,3.9048,3.9083,3.9084,3.9133,3.9128,3.9127,3.9126,3.9157,3.9155,3.9256,3.927,3.9182,3.9183,3.9183,0,3.8856,3.8884,3.8906,3.8923,3.8935,3.8963,3.898,3.8982,3.9,3.9025,3.9046,3.9076,3.91,3.915,3.9159,3.9187,3.9183,3.9217,3.9187,3.9188,3.9184,3.9183,3.9186,3.9223,3.9224,3.9224,3.9225,0,3.8928,3.893,3.8955,3.8983,3.9004,3.9026,3.9046,3.9061,3.9065,3.9087,3.9118,3.9137,3.9175,3.9205,3.9233,3.9243,3.9235,3.9235,3.9243,3.9244,3.9243,3.9245,3.9143,3.9232,3.9231,3.9231,3.923,3.923,3.8979,3.9004,3.9024,3.9053,3.9069,3.9089,3.9113,3.9122,3.9149,3.918,3.9179,3.9214,3.9234,3.9271,3.9284,3.9312,3.9301,3.9313,3.9317,3.932,3.9323,3.9239,3.9317,3.9317,3.9317,3.9317,3.9317,0,3.9051,3.9064,3.9091,3.912,3.9144,3.9136,3.9158,3.9179,3.921,3.923,3.9254,3.9292,3.9322,3.9335,3.9365,3.9385,3.9382,3.9392,3.9391,3.9394,3.9331,3.9321,3.9394,3.9394,3.9394,3.9394,3.9394,3.9394,3.9091,3.9132,3.9137,3.9187,3.9199,3.9234,3.9248,3.9267,3.9283,3.9325,3.9351,3.9359,3.9377,3.9408,3.9436,3.9439,3.9451,3.9463,3.9465,3.9406,3.9398,3.939,3.9381,3.9465,3.9466,3.9525,3.9526,3.9526]},{"header":{"parameterUnit":"m.s-1","parameterCategory":1,"la1":30.2991,"la2":30.254,"lo1":-89.0895,"lo2":-89.0444,"dy":0.0017,"dx":0.0017,"nx":28,"ny":28,"refTime":"2025-01-19T03:00:00:Z","depth":0,"parameterNumber":3,"parameterNumberName":"V-component_of_WINDS"},"data":[0,0,0,0,0,0,0,0,0,0,0,0,0,0,0,0,0,0,0,0,0,0,0,0,0,0,0,0,0,0,0,0,0,0,0,0,0,0,0,0,0,0,0,0,0,0,0,0,0,0,0,0,0,0,0,0,0,0,-8.2574,-8.2576,0,-8.2716,-8.2717,-8.2719,-8.2688,-8.2685,-8.2683,-8.268,-8.2819,-8.2825,-8.2831,0,0,0,0,0,0,0,0,0,0,0,0,0,-8.2274,-8.228,-8.2574,-8.2576,-8.2578,-8.2715,-8.2717,-8.2719,-8.2688,-8.2685,-8.2682,-8.2679,-8.2817,-8.2824,-8.2832,0,0,0,0,0,0,0,0,0,0,0,0,0,-8.2409,-8.2282,-8.2574,-8.2579,-8.2581,-8.2715,-8.2717,-8.272,-8.2689,-8.2685,-8.2681,-8.2678,-8.2815,-8.2824,-8.2833,-8.2968,0,0,-8.2861,-8.2865,0,0,0,0,0,0,0,0,-8.2401,-8.242,-8.2577,-8.2579,-8.2581,-8.268,-8.2662,-8.2803,-8.269,-8.2648,-8.268,-8.2676,-8.2776,-8.2788,-8.2823,-8.2975,-8.2981,-8.2862,-8.2867,-8.2871,-8.2874,0,0,0,0,0,0,0,-8.2392,-8.2414,-8.263,-8.2579,-8.2582,-8.2573,-8.2588,-8.2689,-8.2732,-8.2651,-8.2649,-8.2667,-8.2776,-8.2814,-8.2826,-8.2983,-8.2862,-8.287,-8.2875,-8.2879,-8.3256,-8.326,0,0,0,0,0,0,-8.2381,-8.2406,-8.2625,-8.2634,-8.248,-8.2582,-8.2598,-8.2652,-8.2731,-8.2739,-8.267,-8.2665,-8.28,-8.2815,-8.2831,-8.2997,-8.2871,-8.288,-8.2885,-8.3252,-8.3257,-8.3262,0,0,0,0,0,0,-8.2375,-8.2401,-8.262,-8.252,-8.2547,-8.2591,-8.2652,-8.2657,-8.2695,-8.2745,-8.2752,-8.2701,-8.2798,-8.2818,-8.2936,-8.3001,-8.2884,-8.2892,-8.3246,-8.3253,-8.326,-8.3329,0,0,0,0,0,0,-8.2366,-8.2399,-8.2452,-8.2521,-8.2552,-8.2723,-8.2656,-8.2663,-8.2712,-8.2706,-8.2776,-8.2784,-8.2796,-8.2922,-8.2945,-8.3012,-8.29,-8.3241,-8.3249,-8.3257,-8.3321,-8.3337,-8.3351,0,0,0,0,0,-8.2356,-8.2463,-8.2454,-8.2481,-8.2619,-8.2727,-8.2745,-8.2759,-8.2717,-8.277,-8.2803,-8.2782,-8.299,-8.2934,-8.296,-8.303,-8.3237,-8.3247,-8.3257,-8.3314,-8.3334,-8.335,0,0,0,0,0,0,-8.2397,-8.2473,-8.2463,-8.2597,-8.2656,-8.2722,-8.2789,-8.2779,-8.2849,-8.2841,-8.2853,-8.2869,-8.299,-8.3021,-8.2958,-8.3167,-8.3107,-8.3123,-8.3142,-8.3161,-8.3176,-8.3166,-8.2907,0,0,0,0,0,-8.2423,-8.2506,-8.2566,-8.2678,-8.2709,-8.2744,-8.2791,-8.2797,-8.2858,-8.2882,-8.2923,-8.2982,-8.3061,-8.3113,-8.3188,-8.3325,-8.334,-8.3386,-8.3401,-8.3413,-8.3427,-8.3504,-8.3525,-8.3295,-8.3295,-8.3295,0,0,-8.2475,-8.2526,-8.2577,-8.2688,-8.2734,-8.2819,-8.2765,-8.2856,-8.2919,-8.2895,-8.3011,-8.3043,-8.3109,-8.3238,-8.3297,-8.3268,-8.3494,-8.3426,-8.3436,-8.3443,-8.3517,-8.3538,-8.3558,-8.3302,-8.3301,-8.33,0,0,-8.2613,-8.266,-8.276,-8.2809,-8.2881,-8.2905,-8.2929,-8.2997,-8.3019,-8.3135,-8.312,-8.3194,-8.3329,-8.3378,-8.342,-8.3581,-8.3565,-8.3605,-8.3684,-8.3759,-8.3777,-8.3793,-8.3852,-8.3873,-8.3618,-8.3618,-8.3619,0,-8.2668,-8.2797,-8.2812,-8.2906,-8.2956,-8.2942,-8.3043,-8.3089,-8.3181,-8.3216,-8.3183,-8.3355,-8.3398,-8.3539,-8.3579,-8.3613,-8.3641,-8.3597,-8.3773,-8.379,-8.3805,-8.3861,-8.3883,-8.3623,-8.3622,-8.3622,-8.3622,0,-8.2862,-8.2951,-8.3023,-8.3117,-8.3174,-8.3271,-8.33,-8.3357,-8.3358,-8.3385,-8.3504,-8.3557,-8.3644,-8.3677,-8.3678,-8.382,-8.38,-8.377,-8.3711,-8.3831,-8.3884,-8.3906,-8.363,-8.3628,-8.3627,-8.3625,0,0,-8.3029,-8.3132,-8.3158,-8.3202,-8.3282,-8.3351,-8.3448,-8.3535,-8.3584,-8.3649,-8.3731,-8.3847,-8.3822,-8.387,-8.3876,-8.3942,-8.4069,-8.3904,-8.3906,-8.3934,-8.4229,-8.4252,-8.4277,-8.4058,-8.4062,-8.4066,-8.4224,0,-8.3176,-8.3349,-8.3367,-8.3521,-8.3605,-8.3594,-8.3679,-8.3737,-8.3765,-8.3839,-8.3869,-8.3953,-8.3911,-8.3941,-8.4006,-8.4039,-8.4128,-8.4028,-8.4134,-8.4138,-8.4119,-8.4304,-8.4328,-8.4475,-8.4245,-8.4249,-8.4251,0,-8.337,-8.3444,-8.3608,-8.368,-8.3716,-8.3792,-8.3875,-8.3946,-8.4012,-8.4028,-8.4084,-8.4083,-8.4182,-8.4119,-8.4257,-8.4189,-8.4233,-8.4257,-8.4263,-8.4273,-8.4202,-8.4321,-8.4522,-8.4545,-8.4284,-8.4281,-8.4279,0,-8.3478,-8.3618,-8.3735,-8.3772,-8.3858,-8.3912,-8.395,-8.4013,-8.4065,-8.4137,-8.4172,-8.4253,-8.4298,-8.4361,-8.4382,-8.4334,-8.452,-8.4458,-8.4536,-8.4535,-8.4575,-8.4573,-8.4787,-8.4603,-8.4602,-8.4602,-8.4601,0,-8.364,-8.3741,-8.3785,-8.3857,-8.397,-8.399,-8.4101,-8.4136,-8.4192,-8.427,-8.4265,-8.4338,-8.4361,-8.4438,-8.4454,-8.4567,-8.4586,-8.4602,-8.4605,-8.4603,-8.4602,-8.4633,-8.4623,-8.4608,-8.4606,-8.4605,-8.4604,0,-8.378,-8.3813,-8.394,-8.4013,-8.4033,-8.4114,-8.4175,-8.4244,-8.4272,-8.4372,-8.4396,-8.4439,-8.453,-8.4558,-8.4665,-8.4677,-8.4809,-8.4803,-8.4788,-8.4788,-8.4866,-8.4858,-8.5109,-8.5143,-8.4935,-8.4936,-8.4938,0,-8.3882,-8.396,-8.4042,-8.4095,-8.4137,-8.4222,-8.4277,-8.4299,-8.4356,-8.4439,-8.4499,-8.4589,-8.4663,-8.4808,-8.4848,-8.4932,-8.4928,-8.501,-8.494,-8.4936,-8.4931,-8.4926,-8.4935,-8.5023,-8.5025,-8.5027,-8.5028,0,-8.406,-8.4074,-8.4154,-8.4241,-8.4307,-8.4376,-8.4442,-8.4486,-8.4517,-8.4582,-8.4676,-8.4734,-8.4846,-8.4937,-8.5022,-8.5059,-8.505,-8.505,-8.5073,-8.5072,-8.5061,-8.507,-8.4825,-8.5044,-8.5043,-8.5042,-8.5041,-8.504,-8.4185,-8.4255,-8.4325,-8.4415,-8.4468,-8.4531,-8.4601,-8.4639,-8.4719,-8.4814,-8.4822,-8.4924,-8.499,-8.5104,-8.5147,-8.5227,-8.5203,-8.5235,-8.5243,-8.5251,-8.5259,-8.5048,-8.5242,-8.5241,-8.5241,-8.5241,-8.524,0,-8.4364,-8.441,-8.4493,-8.4587,-8.4659,-8.4646,-8.4719,-8.4779,-8.487,-8.4934,-8.5008,-8.5117,-8.5205,-8.5254,-8.5342,-8.5396,-8.5394,-8.5419,-8.5415,-8.5424,-8.5274,-8.5247,-8.5419,-8.5419,-8.5419,-8.5419,-8.5419,-8.5419,-8.4466,-8.4585,-8.4607,-8.4753,-8.4796,-8.4899,-8.4942,-8.5,-8.5052,-8.5175,-8.525,-8.5282,-8.5339,-8.5432,-8.5512,-8.5524,-8.5557,-8.5585,-8.5594,-8.5453,-8.5435,-8.5417,-8.5391,-8.5592,-8.5592,-8.5738,-8.5739,-8.574]}]]